GW1112 Weather Reports


time (UTC)temp
F
wind
direction
speed
knots
gust
knots
rain 1hr
in
rain 24hr
in
rain mn
in
humidity
%
barometer
mb
20260505153232 75 263 5.2 7.0 0.00 0.00 0.00 57 1009.3
20260505152729 73 229 3.5 3.5 0.00 0.00 0.00 58 1009.2
20260505152226 74 256 3.5 5.2 0.00 0.00 0.00 58 1008.9
20260505151720 75 231 3.5 5.2 0.00 0.00 0.00 57 1008.9
20260505151218 73 238 0.9 0.9 0.00 0.00 0.00 61 1009.1
20260505150714 74 232 0.9 0.9 0.00 0.00 0.00 58 1008.9
20260505150212 75 246 0.9 0.9 0.00 0.00 0.00 60 1008.9
20260505140645 76 238 2.6 3.5 0.00 0.00 0.00 58 1008.8
20260505140142 76 231 0.9 1.7 0.00 0.00 0.00 59 1009.0
20260505130106 73 233 0.9 0.9 0.00 0.00 0.00 63 1009.1
20260505124555 70 226 1.7 2.6 0.00 0.00 0.00 67 1009.0
20260505124051 69 235 2.6 3.5 0.00 0.00 0.00 65 1009.2
20260505123548 68 226 0.0 0.9 0.00 0.00 0.00 68 1009.4
20260505123044 67 248 2.6 3.5 0.00 0.00 0.00 69 1009.0
20260505122541 66 264 1.7 2.6 0.00 0.00 0.00 72 1009.2
20260505122038 64 241 1.7 2.6 0.00 0.00 0.00 74 1009.2
20260505121534 64 232 0.9 0.9 0.00 0.00 0.00 75 1009.3
20260505121031 63 231 0.9 1.7 0.00 0.00 0.00 75 1009.6
20260505120528 62 252 0.9 0.9 0.00 0.00 0.00 77 1009.5
20260505120023 62 255 0.9 1.7 0.00 0.00 0.00 77 1009.4
20260505115518 62 243 0.0 0.0 0.00 0.00 0.00 78 1009.5
20260505115016 62 260 0.9 1.7 0.00 0.00 0.00 78 1009.4
20260505114513 62 246 0.9 0.9 0.00 0.00 0.00 77 1009.4
20260505114009 61 265 1.7 2.6 0.00 0.00 0.00 78 1009.5
20260505113506 61 242 0.0 0.0 0.00 0.00 0.00 80 1009.5
20260505113001 61 243 0.0 0.0 0.00 0.00 0.00 80 1009.4
20260505112458 62 224 0.0 0.0 0.00 0.00 0.00 81 1009.6
20260505111955 62 240 0.9 0.9 0.00 0.00 0.00 78 1009.5
20260505111449 62 230 2.6 3.5 0.00 0.00 0.00 77 1009.6
20260505110946 62 225 1.7 2.6 0.00 0.00 0.00 78 1009.5
20260505110443 61 242 0.0 0.9 0.00 0.00 0.00 78 1009.1
20260505101914 57 248 0.0 0.0 0.00 0.00 0.00 82 1008.5
20260505101409 55 248 0.9 0.9 0.00 0.00 0.00 84 1008.7
20260505100905 54 245 0.0 0.9 0.00 0.00 0.00 87 1008.6
20260505100402 53 251 0.0 0.0 0.00 0.00 0.00 88 1008.6
20260505095857 53 234 0.0 0.0 0.00 0.00 0.00 88 1008.9
20260505095355 53 227 0.0 0.0 0.00 0.00 0.00 88 1008.7
20260505094851 55 227 0.0 0.0 0.00 0.00 0.00 86 1008.6
20260505094348 55 239 0.0 0.0 0.00 0.00 0.00 84 1008.7
20260505093844 54 248 0.0 0.0 0.00 0.00 0.00 86 1008.6
20260505093341 53 245 0.0 0.0 0.00 0.00 0.00 88 1008.6
20260505092839 53 246 0.0 0.0 0.00 0.00 0.00 89 1008.5
20260505092337 54 239 0.0 0.0 0.00 0.00 0.00 87 1008.7
20260505091833 55 229 0.0 0.0 0.00 0.00 0.00 87 1008.7
20260505091332 55 244 0.0 0.0 0.00 0.00 0.00 84 1008.5
20260505090829 55 244 0.0 0.0 0.00 0.00 0.00 85 1008.3
20260505090328 55 243 0.0 0.0 0.00 0.00 0.00 85 1008.1
20260505085824 54 241 0.0 0.0 0.00 0.00 0.00 87 1008.3
20260505085322 53 241 0.0 0.0 0.00 0.00 0.00 88 1008.2
20260505084820 54 240 0.0 0.0 0.00 0.00 0.00 87 1008.2
20260505084318 54 249 0.0 0.0 0.00 0.00 0.00 87 1008.3
20260505083814 53 251 0.0 0.0 0.00 0.00 0.00 88 1008.3
20260505083311 53 252 0.0 0.0 0.00 0.00 0.00 88 1008.2
20260505082807 53 239 0.0 0.0 0.00 0.00 0.00 89 1008.2
20260505082305 54 239 0.0 0.0 0.00 0.00 0.00 88 1008.3
20260505081800 54 240 0.0 0.0 0.00 0.00 0.00 87 1008.5
20260505081257 55 239 0.0 0.0 0.00 0.00 0.00 86 1008.5
20260505080754 55 247 0.0 0.0 0.00 0.00 0.00 85 1008.7
20260505080250 54 244 0.0 0.0 0.00 0.00 0.00 87 1008.6
20260505075745 54 245 0.0 0.0 0.00 0.00 0.00 87 1008.4
20260505075243 54 244 0.0 0.0 0.00 0.00 0.00 86 1008.3
20260505074740 55 239 0.0 0.0 0.00 0.00 0.00 85 1008.2
20260505074237 55 238 0.0 0.0 0.00 0.00 0.00 85 1008.1
20260505073735 55 238 0.0 0.0 0.00 0.00 0.00 85 1007.9
20260505073233 55 241 0.0 0.0 0.00 0.00 0.00 86 1008.0
20260505072729 54 235 0.0 0.0 0.00 0.00 0.00 87 1007.9
20260505072225 53 246 0.0 0.0 0.00 0.00 0.00 88 1008.1
20260505071721 53 247 0.0 0.0 0.00 0.00 0.00 89 1007.9
20260505071219 52 229 0.0 0.0 0.00 0.00 0.00 90 1008.0
20260505070716 52 242 0.0 0.0 0.00 0.00 0.00 91 1007.7
20260505070212 52 244 0.0 0.0 0.00 0.00 0.00 90 1008.0
20260505065708 52 237 0.0 0.0 0.00 0.00 0.00 90 1007.9
20260505065205 52 237 0.0 0.0 0.00 0.00 0.00 90 1008.1
20260505064701 53 237 0.0 0.0 0.00 0.00 0.00 89 1008.0
20260505064200 53 237 0.0 0.0 0.00 0.00 0.00 88 1008.0
20260505063657 53 240 0.0 0.0 0.00 0.00 0.00 87 1008.1
20260505063153 54 240 0.0 0.0 0.00 0.00 0.00 87 1008.0
20260505062649 54 241 0.0 0.0 0.00 0.00 0.00 86 1008.1
20260505062147 54 240 0.0 0.0 0.00 0.00 0.00 86 1008.1
20260505061644 55 240 0.0 0.0 0.00 0.00 0.00 85 1008.0
20260505061142 55 243 0.0 0.0 0.00 0.00 0.00 84 1008.1
20260505060639 56 244 0.0 0.0 0.00 0.00 0.00 84 1008.2
20260505060136 56 245 0.0 0.0 0.00 0.00 0.00 83 1008.1
20260505055631 57 242 0.0 0.0 0.00 0.00 0.00 81 1008.3
20260505055128 57 243 0.0 0.0 0.00 0.00 0.00 80 1008.4
20260505054625 58 243 0.0 0.0 0.00 0.00 0.00 79 1008.4
20260505054123 59 234 0.0 0.0 0.00 0.00 0.00 77 1008.5
20260505053620 60 233 0.0 0.0 0.00 0.00 0.00 76 1008.4
20260505053116 60 241 0.0 0.0 0.00 0.00 0.00 75 1008.6
20260505052613 59 241 0.0 0.0 0.00 0.00 0.00 77 1008.5
20260505052111 58 244 0.0 0.0 0.00 0.00 0.00 79 1008.5
20260505051608 58 243 0.0 0.0 0.00 0.00 0.00 78 1008.6
20260505051106 58 242 0.0 0.0 0.00 0.00 0.00 78 1008.6
20260505050604 59 242 0.0 0.0 0.00 0.00 0.00 77 1008.4
20260505041531 63 245 0.9 0.9 0.00 0.00 0.00 69 1008.3
20260505041029 64 257 1.7 1.7 0.00 0.00 0.00 68 1008.4
20260505040526 64 256 2.6 2.6 0.00 0.00 0.00 67 1008.5
20260505040023 63 267 1.7 2.6 0.00 0.00 0.00 68 1008.3
20260505035519 62 267 2.6 3.5 0.00 0.00 0.00 71 1008.3
20260505035016 62 242 0.0 0.0 0.00 0.00 0.00 70 1008.2
20260505034512 62 246 0.9 0.9 0.00 0.00 0.00 70 1008.3
20260505034010 63 245 0.9 0.9 0.00 0.00 0.00 69 1008.3
20260505033506 62 253 1.7 2.6 0.00 0.00 0.00 69 1008.2
20260505033005 62 249 1.7 1.7 0.00 0.00 0.00 69 1008.2
20260505032502 61 246 1.7 1.7 0.00 0.00 0.00 71 1008.2
20260505031958 58 249 0.0 0.0 0.00 0.00 0.00 76 1008.3
20260505031455 56 246 0.0 0.0 0.00 0.00 0.00 81 1008.2
20260505030952 55 243 0.0 0.0 0.00 0.00 0.00 84 1008.1
20260505030448 56 243 0.0 0.0 0.00 0.00 0.00 84 1008.3
20260505025943 56 242 0.0 0.0 0.00 0.00 0.00 81 1008.2
20260505025441 57 242 0.0 0.0 0.00 0.00 0.00 81 1008.2
20260505024940 57 244 0.0 0.0 0.00 0.00 0.00 80 1008.2
20260505024436 58 235 0.0 0.0 0.00 0.00 0.00 78 1008.2
20260505023933 59 240 0.0 0.0 0.00 0.00 0.00 76 1008.1
20260505023430 59 240 0.0 0.0 0.00 0.00 0.00 75 1008.2
20260505022928 60 240 0.0 0.0 0.00 0.00 0.00 73 1008.1
20260505022426 61 240 0.0 0.0 0.00 0.00 0.00 72 1008.3
20260505021922 62 240 0.0 0.0 0.00 0.00 0.00 68 1008.4
20260505021418 63 240 0.0 0.0 0.00 0.00 0.00 67 1008.4
20260505020914 63 247 1.7 1.7 0.00 0.00 0.00 66 1008.4
20260505020410 64 242 0.0 0.0 0.00 0.00 0.00 66 1008.4
20260505015907 64 245 0.9 1.7 0.00 0.00 0.00 64 1008.6
20260505015404 64 244 0.0 0.0 0.00 0.00 0.00 66 1008.3
20260505014901 64 249 0.9 0.9 0.00 0.00 0.00 65 1008.0
20260505014358 64 241 0.0 0.0 0.00 0.00 0.00 63 1008.3
20260505013855 64 240 0.0 0.0 0.00 0.00 0.00 62 1008.2
20260505013352 64 250 0.9 1.7 0.00 0.00 0.00 63 1008.4
20260505012850 63 244 0.0 0.0 0.00 0.00 0.00 63 1008.2
20260505012348 62 248 0.0 0.9 0.00 0.00 0.00 65 1008.1
20260505011844 62 247 0.0 0.0 0.00 0.00 0.00 65 1008.0
20260505011341 63 248 0.0 0.0 0.00 0.00 0.00 65 1007.9
20260505010837 63 246 0.0 0.0 0.00 0.00 0.00 64 1007.8
20260505010333 64 247 0.0 0.0 0.00 0.00 0.00 63 1007.6
20260505005829 64 245 0.0 0.0 0.00 0.00 0.00 63 1007.7
20260505005326 64 241 0.0 0.0 0.00 0.00 0.00 62 1007.9
20260505004824 63 251 0.9 0.9 0.00 0.00 0.00 63 1008.0
20260505004320 63 242 0.0 0.0 0.00 0.00 0.00 64 1007.6
20260505003817 63 237 0.0 0.0 0.00 0.00 0.00 63 1007.4
20260505003314 64 236 0.0 0.0 0.00 0.00 0.00 63 1007.8
20260505002810 64 233 0.9 1.7 0.00 0.00 0.00 62 1007.6
20260505002308 64 238 0.0 0.0 0.00 0.00 0.00 63 1007.4
20260505001806 64 237 0.0 0.0 0.00 0.00 0.00 62 1007.3
20260505001303 64 233 0.0 0.0 0.00 0.00 0.00 61 1007.3
20260505000800 65 230 0.0 0.0 0.00 0.00 0.00 60 1007.2
20260505000258 66 229 0.0 0.0 0.00 0.00 0.00 60 1007.1
20260504235754 66 233 0.0 0.0 0.00 0.00 0.00 59 1007.2
20260504235250 67 232 0.0 0.0 0.00 0.00 0.00 58 1007.1
20260504234748 66 250 0.0 0.9 0.00 0.00 0.00 58 1007.0
20260504234245 67 235 0.0 0.0 0.00 0.00 0.00 58 1006.9
20260504233741 68 235 0.0 0.0 0.00 0.00 0.00 57 1006.9
20260504233237 69 241 0.0 0.0 0.00 0.00 0.00 56 1007.1
20260504232734 69 235 0.0 0.0 0.00 0.00 0.00 54 1007.0
20260504232231 69 239 0.9 1.7 0.00 0.00 0.00 55 1006.9
20260504231728 69 227 0.0 0.0 0.00 0.00 0.00 55 1006.9
20260504231224 70 238 0.0 0.0 0.00 0.00 0.00 53 1007.0
20260504230720 70 237 0.0 0.0 0.00 0.00 0.00 53 1007.0
20260504230219 70 222 0.0 0.0 0.00 0.00 0.00 52 1006.9
20260504225717 71 217 0.9 0.9 0.00 0.00 0.00 50 1007.1
20260504225213 72 237 0.0 0.0 0.00 0.00 0.00 50 1006.8
20260504224710 73 237 1.7 2.6 0.00 0.00 0.00 48 1006.7
20260504224208 73 268 2.6 3.5 0.00 0.00 0.00 48 1006.8
20260504223704 72 239 0.0 0.0 0.00 0.00 0.00 50 1006.8
20260504223200 72 214 1.7 1.7 0.00 0.00 0.00 49 1006.8
20260504222657 72 197 1.7 2.6 0.00 0.00 0.00 47 1006.6
20260504222153 73 240 1.7 1.7 0.00 0.00 0.00 48 1006.7
20260504221651 73 231 0.0 0.0 0.00 0.00 0.00 47 1006.7
20260504221148 74 224 0.0 0.0 0.00 0.00 0.00 47 1006.6
20260504220644 73 203 1.7 1.7 0.00 0.00 0.00 46 1006.8
20260504220142 73 255 0.0 0.0 0.00 0.00 0.00 47 1006.6
20260504215638 74 227 0.9 1.7 0.00 0.00 0.00 45 1006.6
20260504215136 74 241 0.9 1.7 0.00 0.00 0.00 45 1006.7
20260504214631 76 241 0.9 1.7 0.00 0.00 0.00 43 1006.7
20260504214128 75 266 1.7 2.6 0.00 0.00 0.00 44 1006.8
20260504213624 75 251 0.0 0.0 0.00 0.00 0.00 44 1006.8
20260504213121 75 236 0.0 0.0 0.00 0.00 0.00 44 1006.7
20260504212618 75 265 1.7 2.6 0.00 0.00 0.00 44 1006.5
20260504212115 76 244 3.5 3.5 0.00 0.00 0.00 41 1006.8
20260504211612 76 275 4.3 7.0 0.00 0.00 0.00 40 1006.6
20260504211109 77 251 2.6 3.5 0.00 0.00 0.00 39 1006.7
20260504210606 78 250 1.7 1.7 0.00 0.00 0.00 42 1006.7
20260504205600 74 214 0.9 1.7 0.00 0.00 0.00 40 1006.9
20260504205058 75 257 7.0 8.7 0.00 0.00 0.00 40 1006.8
20260504204556 74 237 0.9 0.9 0.00 0.00 0.00 45 1006.9
20260504204055 74 239 0.9 0.9 0.00 0.00 0.00 44 1006.9
20260504203552 75 234 0.0 0.0 0.00 0.00 0.00 43 1007.0
20260504203050 74 241 0.0 0.0 0.00 0.00 0.00 45 1007.0
20260504202545 73 249 0.0 0.0 0.00 0.00 0.00 44 1007.1
20260504202042 74 258 0.9 0.9 0.00 0.00 0.00 43 1007.1
20260504201539 75 254 3.5 6.1 0.00 0.00 0.00 39 1007.2
20260504201037 74 256 2.6 3.5 0.00 0.00 0.00 40 1007.1
20260504200533 75 227 0.9 1.7 0.00 0.00 0.00 41 1007.2
20260504200030 73 275 3.5 3.5 0.00 0.00 0.00 41 1007.3
20260504195526 74 265 1.7 1.7 0.00 0.00 0.00 41 1007.6
20260504195022 75 254 1.7 1.7 0.00 0.00 0.00 40 1007.4
20260504194519 77 256 5.2 6.1 0.00 0.00 0.00 39 1007.9
20260504194014 77 251 0.9 1.7 0.00 0.00 0.00 44 1007.8
20260504193511 76 262 1.7 2.6 0.00 0.00 0.00 42 1007.8
20260504193010 77 260 1.7 1.7 0.00 0.00 0.00 42 1007.9
20260504192508 76 194 3.5 6.1 0.00 0.00 0.00 42 1008.0
20260504192006 74 258 3.5 5.2 0.00 0.00 0.00 44 1007.8
20260504191503 73 195 0.9 1.7 0.00 0.00 0.00 44 1008.0
20260504190959 73 263 2.6 2.6 0.00 0.00 0.00 44 1008.1
20260504190455 74 246 2.6 2.6 0.00 0.00 0.00 47 1008.3
20260504185951 75 260 1.7 2.6 0.00 0.00 0.00 43 1008.3
20260504185449 74 272 8.7 13.0 0.00 0.00 0.00 42 1008.4
20260504184945 75 256 3.5 3.5 0.00 0.00 0.00 42 1008.3
20260504184441 77 266 3.5 6.1 0.00 0.00 0.00 41 1008.6
20260504183936 75 239 1.7 2.6 0.00 0.00 0.00 45 1008.6
20260504183434 76 270 1.7 2.6 0.00 0.00 0.00 44 1008.4
20260504182932 77 238 0.9 1.7 0.00 0.00 0.00 45 1008.6
20260504182428 76 242 0.0 0.9 0.00 0.00 0.00 42 1008.5
20260504181926 75 238 0.0 0.9 0.00 0.00 0.00 43 1008.7
20260504181423 74 238 0.9 1.7 0.00 0.00 0.00 47 1008.8
20260504180921 73 240 0.0 0.9 0.00 0.00 0.00 51 1009.0
20260504180420 75 270 7.8 9.6 0.00 0.00 0.00 43 1009.0
20260504175918 73 259 3.5 3.5 0.00 0.00 0.00 46 1009.0
20260504175414 72 243 1.7 2.6 0.00 0.00 0.00 47 1009.2
20260504174912 72 247 2.6 5.2 0.00 0.00 0.00 46 1009.1
20260504174410 71 297 6.1 7.8 0.00 0.00 0.00 46 1009.2
20260504173907 72 278 6.1 7.8 0.00 0.00 0.00 46 1009.4
20260504173403 72 279 1.7 3.5 0.00 0.00 0.00 46 1009.7
20260504172900 72 173 1.7 1.7 0.00 0.00 0.00 47 1009.5
20260504172357 74 254 1.7 3.5 0.00 0.00 0.00 47 1009.6
20260504171852 74 252 1.7 1.7 0.00 0.00 0.00 49 1009.7
20260504171350 74 266 4.3 6.1 0.00 0.00 0.00 45 1009.7
20260504170847 73 249 0.9 0.9 0.00 0.00 0.00 50 1009.7
20260504170343 73 243 2.6 6.1 0.00 0.00 0.00 50 1009.7
20260504160302 69 231 1.7 1.7 0.00 0.00 0.00 54 1011.0